Overview Statistics Trail Chart Weather Telemetry Raw packets
 

This is the latest recevied weather packets stored in our database for station/object OK1FET-4. If no packets are shown the sender has not sent any weather packets the latest 10 day(s).

<< 6 7 8 9 10 11 12 >>
Time Temp. Humidity Pressure Rain* Wind** Luminosity Snow
1788609766 20.56° C 52% 1020.3 hPa - - - -
1788609465 20.56° C 51% 1020.4 hPa - - - -
1788609164 20.56° C 53% 1020.2 hPa - - - -
1788608863 20° C 56% 1020.4 hPa - - - -
1788608562 20.56° C 53% 1020 hPa - - - -
1788608261 20.56° C 54% 1020.5 hPa - - - -
1788607960 21.11° C 53% 1020.5 hPa - - - -
1788607662 20.56° C 54% 1020.4 hPa - - - -
1788607358 20.56° C 54% 1020.5 hPa - - - -
1788607058 20.56° C 52% 1020.1 hPa - - - -
1788606757 20.56° C 53% 1020.4 hPa - - - -
1788606456 21.11° C 53% 1020.5 hPa - - - -
1788606155 20.56° C 56% 1020.5 hPa - - - -
1788605854 21.11° C 54% 1020.6 hPa - - - -
1788605553 20.56° C 56% 1020.5 hPa - - - -
1788605252 20° C 57% 1020.6 hPa - - - -
1788604951 20.56° C 59% 1020.6 hPa - - - -
1788604650 20° C 60% 1020.7 hPa - - - -
1788604381 20.56° C 61% 1020.5 hPa - - - -
1788604048 21.11° C 54% 1020.6 hPa - - - -
1788603747 20.56° C 60% 1020.5 hPa - - - -
1788603446 20° C 60% 1020.5 hPa - - - -
1788603146 20° C 59% 1020.2 hPa - - - -
1788602845 20° C 61% 1020.5 hPa - - - -
1788602544 20° C 61% 1020.4 hPa - - - -

* Rain since midnight (hover to see other rain measurements)
** Current wind speed in m/s (hover to see current wind gust speed)